Location: Maddington
(51.2000°N, 1.9167°W)
Time: 15:12:01
(UTC+00:00)

NOSS 2-2 (E) - Pass Details

Date: 26 January 2021
Orbit: 462 x 1744 km, 63.3° (Epoch: 03 March)

Event Time Altitude Azimuth Distance (km) Brightness Sun altitude
Rises 21:05:07 0° 310° (NW) 3,216 8.0 -39.7°
Reaches altitude 10° 21:07:23 10° 301° (WNW) 2,448 7.3 -40.0°
Enters shadow 21:10:26 28° 274° (W) 1,688 6.1 -40.4°
